www.pogodaiklimat.ru

Погода и климат >> Архив погоды >> Япония >> Омаэдзаки


ПОГОДА в Омаэдзаки

  • Прогноз погоды в Омаэдзаки
  • Монитор погоды в Омаэдзаки

АРХИВ ПОГОДЫ в Омаэдзаки

Время (UTC), дата Ветер
(напр.,м/с)
 
Видим.   Явления Облачность Т
(С)
Тd
(С)
f
(%)
Тe
(С)
Тes
(С)
Комфортность P
(гПа)
Po
(гПа)
Тmin
(С)
Tmax
(С)
R
(мм)
R24
(мм)
S
(см)
15 18.08 З 2 8000 м дымка н/о +26.5 +25.3 93 +38 +38 очень
душно
1009.4 1003.7
18 18.08 СЗ 2 8000 м дымка н/о +26.2 +25.0 93 +37 +37 очень
душно
1009.5 1003.8
21 18.08 С 2 8000 м дымка н/о +26.3 +25.1 93 +38 +38 очень
душно
1010.6 1004.9
00 19.08 СВ 2 10 км н/о +28.5 +25.7 85 +42 +42 опасность
перегрева
1010.9 1005.2 +25.9
03 19.08 ЮВ 5 11 км н/о +30.9 +26.2 76 +47 +47 опасность
перегрева
1010.9 1005.3
06 19.08 ЮВ 5 8000 м дымка н/о +30.6 +25.9 76 +46 +46 опасность
перегрева
1010.0 1004.4
09 19.08 Ю 4 6000 м дымка н/о +28.3 +26.1 88 +43 +43 опасность
перегрева
1010.9 1005.2
10 19.08 Ю 3 5000 м дымка н/о +28.0 +26.4 91 +43 +43 опасность
перегрева
1011.5 1005.8
11 19.08 ЮЗ 3 11 км н/о +27.9 +25.3 86 +41 +41 опасность
перегрева
1011.6 1005.9
12 19.08 З 2 7000 м дымка н/о +27.8 +26.2 91 +42 +42 опасность
перегрева
1011.9 1006.2 +31.4
13 19.08 В 5 9000 м дымка н/о +27.6 +26.0 91 +41 +41 опасность
перегрева
1010.0 1004.3
14 19.08 В 1 12 км н/о +27.6 +25.8 90 +41 +41 опасность
перегрева
1011.5 1005.8
15 19.08 В 1 10 км н/о +27.3 +25.9 92 +41 +41 опасность
перегрева
1011.2 1005.5
16 19.08 С 1 8000 м дымка н/о +27.3 +26.1 93 +41 +41 опасность
перегрева
1011.3 1005.6
17 19.08 В 2 5000 м дымка н/о +27.4 +26.4 94 +42 +42 опасность
перегрева
1011.2 1005.5
18 19.08 В 2 5000 м дымка н/о +27.3 +26.1 93 +41 +41 опасность
перегрева
1011.4 1005.7
19 19.08 В 2 5000 м дымка н/о +27.2 +26.0 93 +41 +41 опасность
перегрева
1011.2 1005.5
20 19.08 В 2 5000 м дымка н/о +27.3 +25.9 92 +41 +41 опасность
перегрева
1011.2 1005.5
21 19.08 В 2 6000 м дымка н/о +27.5 +25.7 90 +41 +41 опасность
перегрева
1011.3 1005.6
22 19.08 ЮВ 2 3200 м дымка н/о +27.5 +26.5 94 +42 +42 опасность
перегрева
1011.4 1005.7
23 19.08 Ю 2 2800 м слаб. дождь н/о +26.2 +25.5 96 +38 +38 очень
душно
1011.4 1005.7
00 20.08 В 3 5000 м дымка {дождь} н/о +27.5 +26.1 92 +41 +41 опасность
перегрева
1011.6 1005.9 +26.1 4
01 20.08 Ю 2 8000 м дымка н/о +28.8 +25.2 81 +42 +42 опасность
перегрева
1011.4 1005.7
02 20.08 Ю 3 7000 м дымка н/о +29.1 +26.1 84 +44 +44 опасность
перегрева
1011.0 1005.3
03 20.08 Ю 4 11 км н/о +29.9 +26.1 80 +45 +45 опасность
перегрева
1010.2 1004.5
04 20.08 ЮЗ 4 20 км н/о +30.3 +26.5 80 +46 +46 опасность
перегрева
1009.9 1004.3
05 20.08 ЮЗ 4 20 км н/о +30.3 +26.9 82 +47 +47 опасность
перегрева
1009.2 1003.6
06 20.08 ЮЗ 7 20 км н/о +30.5 +26.7 80 +47 +47 опасность
перегрева
1009.0 1003.4
07 20.08 ЮЗ 7 20 км н/о +29.1 +26.7 87 +45 +45 опасность
перегрева
1009.2 1003.5
08 20.08 З 7 20 км н/о +29.1 +26.5 86 +45 +45 опасность
перегрева
1009.1 1003.4
09 20.08 З 7 18 км н/о +28.4 +26.4 89 +43 +43 опасность
перегрева
1008.8 1003.1
10 20.08 З 7 15 км н/о +28.1 +27.0 94 +44 +44 опасность
перегрева
1009.0 1003.3
11 20.08 З 6 12 км н/о +28.0 +27.1 95 +44 +44 опасность
перегрева
1009.4 1003.7
12 20.08 З 5 11 км н/о +28.0 +27.5 97 +45 +45 опасность
перегрева
1009.7 1004.0 +31.0
13 20.08 З 5 11 км н/о +27.9 +27.4 97 +45 +45 опасность
перегрева
1009.4 1003.7
14 20.08 З 4 6000 м дымка н/о +27.9 +27.6 98 +45 +45 опасность
перегрева
1009.2 1003.5
15 20.08 З 3 9000 м дымка н/о +27.3 +26.4 95 +42 +42 опасность
перегрева
1009.1 1003.4
16 20.08 З 3 12 км н/о +26.9 +25.9 94 +40 +40 очень
душно
1008.9 1003.2
17 20.08 З 3 13 км н/о +26.5 +25.3 93 +38 +38 очень
душно
1008.8 1003.1
18 20.08 З 2 15 км н/о +26.1 +25.1 94 +37 +37 очень
душно
1008.7 1003.0 0.0
20 20.08 З 2 20 км н/о +25.7 +23.8 89 +35 +35 очень
душно
1009.0 1003.3
21 20.08 С 1 20 км н/о +26.1 +24.2 89 +36 +36 очень
душно
1009.4 1003.7
22 20.08 СВ 1 20 км н/о +27.5 +25.0 86 +39 +39 очень
душно
1009.6 1003.9
23 20.08 Ю 2 10 км н/о +27.6 +25.2 87 +40 +40 очень
душно
1010.0 1004.3
00 21.08 Ю 1 20 км н/о +29.2 +25.4 80 +43 +43 опасность
перегрева
1010.3 1004.6 +25.6
01 21.08 СВ 2 20 км н/о +29.3 +26.5 85 +45 +45 опасность
перегрева
1010.1 1004.4
02 21.08 Ю 3 20 км н/о +29.5 +26.1 82 +45 +45 опасность
перегрева
1010.0 1004.3
03 21.08 Ю 4 20 км н/о +30.1 +24.5 72 +42 +42 опасность
перегрева
1009.5 1003.9
05 21.08 ЮЗ 3 14 км н/о +29.3 +26.7 86 +46 +46 опасность
перегрева
1009.2 1003.5
06 21.08 ЮЗ 2 16 км слаб. дождь н/о +29.3 +26.9 87 +46 +46 опасность
перегрева
1008.8 1003.1 0.0
07 21.08 ЮЗ 3 18 км в посл. час дождь н/о +29.3 +26.5 85 +45 +45 опасность
перегрева
1009.0 1003.3
09 21.08 ЮЗ 4 17 км {дождь} н/о +28.9 +26.7 88 +45 +45 опасность
перегрева
1008.8 1003.1
10 21.08 З 4 15 км н/о +28.2 +26.8 92 +44 +44 опасность
перегрева
1009.1 1003.4
11 21.08 З 4 12 км н/о +28.1 +27.0 94 +44 +44 опасность
перегрева
1009.5 1003.8
12 21.08 З 4 13 км {дождь} н/о +28.1 +27.0 94 +44 +44 опасность
перегрева
1010.1 1004.4 +31.0 0.0
13 21.08 З 3 11 км н/о +28.1 +27.4 96 +45 +45 опасность
перегрева
1009.8 1004.1
15 21.08 З 4 11 км н/о +27.8 +27.1 96 +44 +44 опасность
перегрева
1009.0 1003.3
16 21.08 З 5 8000 м дымка н/о +28.0 +27.5 97 +45 +45 опасность
перегрева
1008.4 1002.7
17 21.08 З 4 7000 м дымка н/о +27.6 +27.1 97 +43 +43 опасность
перегрева
1008.2 1002.5
18 21.08 З 4 17 км н/о +27.1 +25.3 90 +39 +39 очень
душно
1008.2 1002.5
19 21.08 З 4 14 км н/о +27.6 +26.2 92 +42 +42 опасность
перегрева
1008.2 1002.5
20 21.08 З 5 16 км н/о +27.6 +25.8 90 +41 +41 опасность
перегрева
1008.2 1002.5
21 21.08 З 6 20 км н/о +28.0 +25.6 87 +41 +41 опасность
перегрева
1008.7 1003.0
22 21.08 З 6 20 км н/о +28.9 +25.5 82 +43 +43 опасность
перегрева
1009.0 1003.3
23 21.08 З 8 20 км н/о +29.8 +25.1 76 +43 +43 опасность
перегрева
1009.5 1003.8
00 22.08 З 7 17 км н/о +30.7 +25.8 75 +46 +46 опасность
перегрева
1009.6 1004.0 +27.0
01 22.08 З 7 17 км н/о +30.0 +26.2 80 +45 +45 опасность
перегрева
1009.7 1004.0
02 22.08 ЮЗ 7 14 км н/о +30.7 +26.2 77 +46 +46 опасность
перегрева
1009.2 1003.6
03 22.08 ЮЗ 6 15 км н/о +31.3 +26.3 75 +47 +47 опасность
перегрева
1009.0 1003.4
04 22.08 ЮЗ 7 17 км н/о +31.6 +26.9 76 +49 +49 опасность
перегрева
1008.5 1002.9
05 22.08 ЮЗ 7 19 км н/о +31.6 +26.6 75 +49 +49 опасность
перегрева
1008.2 1002.6
06 22.08 ЮЗ 7 18 км н/о +31.1 +26.8 78 +48 +48 опасность
перегрева
1008.1 1002.5
07 22.08 ЮЗ 8 17 км н/о +29.9 +26.1 80 +45 +45 опасность
перегрева
1008.1 1002.5
08 22.08 ЮЗ 7 19 км н/о +29.4 +26.2 83 +45 +45 опасность
перегрева
1008.4 1002.7
09 22.08 ЮЗ 7 18 км н/о +28.5 +26.1 87 +43 +43 опасность
перегрева
1008.8 1003.1
11 22.08 З 5 20 км н/о +28.0 +25.4 86 +41 +41 опасность
перегрева
1009.6 1003.9
12 22.08 ЮЗ 6 20 км н/о +27.8 +25.2 86 +40 +40 очень
душно
1010.0 1004.3 +32.0
13 22.08 ЮЗ 7 20 км н/о +27.9 +25.0 84 +40 +40 очень
душно
1010.1 1004.4
14 22.08 ЮЗ 6 20 км н/о +27.8 +25.6 88 +41 +41 опасность
перегрева
1009.7 1004.0
15 22.08 ЮЗ 7 20 км н/о +27.7 +25.5 88 +41 +41 опасность
перегрева
1009.2 1003.5
16 22.08 ЮЗ 7 19 км слаб. дождь н/о +27.7 +26.3 92 +42 +42 опасность
перегрева
1008.3 1002.6
17 22.08 ЮЗ 7 17 км в посл. час дождь н/о +27.9 +26.3 91 +42 +42 опасность
перегрева
1007.4 1001.7
18 22.08 ЮЗ 9 17 км {дождь} н/о +27.9 +26.3 91 +42 +42 опасность
перегрева
1006.8 1001.1 0.0
19 22.08 ЮЗ 10 17 км н/о +27.7 +25.9 90 +41 +41 опасность
перегрева
1006.7 1001.0
20 22.08 ЮЗ 10 15 км н/о +27.8 +26.0 90 +42 +42 опасность
перегрева
1006.2 1000.5
21 22.08 ЮЗ 10 14 км н/о +27.9 +26.1 90 +42 +42 опасность
перегрева
1006.4 1000.7
22 22.08 З 9 9000 м слаб. дождь н/о +27.8 +26.8 94 +43 +43 опасность
перегрева
1006.8 1001.1
23 22.08 З 7 10 км в посл. час дождь н/о +27.4 +26.9 97 +43 +43 опасность
перегрева
1007.2 1001.5
00 23.08 З 6 12 км в посл. час дождь н/о +27.2 +26.5 96 +42 +42 опасность
перегрева
1007.3 1001.6 +27.0 1
01 23.08 З 9 20 км слаб. дождь н/о +27.2 +25.0 88 +39 +39 очень
душно
1007.0 1001.3
02 23.08 З 11 11 км в посл. час дождь н/о +28.2 +25.2 84 +41 +41 опасность
перегрева
1006.8 1001.1
03 23.08 З 7 19 км в посл. час дождь н/о +28.4 +24.8 81 +41 +41 опасность
перегрева
1006.6 1000.9
04 23.08 З 6 20 км н/о +27.7 +24.1 81 +39 +39 очень
душно
1006.8 1001.1
05 23.08 СЗ 7 20 км слаб. дождь н/о +25.3 +23.0 87 +34 +34 очень
душно
1007.3 1001.6
06 23.08 З 5 20 км слаб. дождь н/о +24.7 +21.4 82 +31 +31 очень
душно
1007.4 1001.7 0.0
07 23.08 З 6 20 км в посл. час дождь н/о +25.8 +21.3 76 +33 +33 очень
душно
1007.0 1001.3
08 23.08 З 7 20 км н/о +26.0 +21.4 76 +33 +33 очень
душно
1007.0 1001.3
09 23.08 З 7 20 км {дождь} н/о +25.7 +22.2 81 +33 +33 очень
душно
1007.0 1001.3
10 23.08 З 7 20 км н/о +25.2 +21.7 81 +32 +32 очень
душно
1007.7 1002.0
11 23.08 З 6 20 км н/о +24.9 +21.6 82 +32 +32 очень
душно
1008.3 1002.6
12 23.08 З 5 20 км в посл. час дождь н/о +24.8 +21.3 81 +31 +31 очень
душно
1008.3 1002.6 +28.9 0.0
13 23.08 З 5 17 км н/о +24.8 +21.7 83 +32 +32 очень
душно
1008.1 1002.4
14 23.08 З 7 19 км н/о +25.2 +21.9 82 +32 +32 очень
душно
1008.1 1002.4
15 23.08 З 5 13 км н/о +25.2 +22.5 85 +33 +33 очень
душно
1008.1 1002.4
16 23.08 З 7 17 км н/о +25.1 +22.4 85 +33 +33 очень
душно
1007.8 1002.1
17 23.08 З 7 13 км н/о +24.7 +22.6 88 +32 +32 очень
душно
1008.3 1002.5
18 23.08 З 6 12 км н/о +24.4 +22.7 90 +32 +32 очень
душно
1008.5 1002.7
19 23.08 З 4 11 км н/о +24.1 +22.4 90 +31 +31 очень
душно
1008.8 1003.0
20 23.08 З 4 13 км слаб. дождь н/о +24.1 +22.2 89 +31 +31 очень
душно
1008.9 1003.1
21 23.08 З 6 13 км слаб. дождь н/о +25.1 +22.6 86 +33 +33 очень
душно
1009.9 1004.1
22 23.08 З 6 9000 м слаб. дождь н/о +24.0 +22.6 92 +31 +31 очень
душно
1009.9 1004.1
23 23.08 З 6 14 км слаб. дождь н/о +24.1 +22.0 88 +31 +31 очень
душно
1010.1 1004.3
00 24.08 З 6 11 км в посл. час дождь н/о +24.7 +23.1 91 +33 +33 очень
душно
1010.3 1004.5 +23.6 2
02 24.08 З 7 14 км н/о +26.3 +23.0 82 +35 +35 очень
душно
1009.6 1003.9
03 24.08 З 6 16 км н/о +27.4 +23.0 77 +37 +37 очень
душно
1009.2 1003.5
04 24.08 ЮЗ 9 20 км н/о +28.0 +23.4 76 +38 +38 очень
душно
1008.9 1003.2
05 24.08 ЮЗ 9 20 км н/о +27.8 +23.2 76 +37 +37 очень
душно
1008.7 1003.0
06 24.08 ЮЗ 9 20 км н/о +27.6 +23.4 78 +37 +37 очень
душно
1008.6 1002.9
08 24.08 З 8 15 км н/о +26.6 +24.1 86 +37 +37 очень
душно
1008.9 1003.2
09 24.08 З 7 14 км н/о +26.2 +23.7 86 +36 +36 очень
душно
1009.1 1003.4
10 24.08 З 5 12 км н/о +26.0 +23.7 87 +35 +35 очень
душно
1009.4 1003.7
11 24.08 З 5 11 км н/о +25.8 +24.0 90 +36 +36 очень
душно
1009.8 1004.1
12 24.08 З 4 8000 м в посл. час дождь н/о +25.5 +24.1 92 +35 +35 очень
душно
1009.5 1003.8 +28.2 0.0
13 24.08 З 5 8000 м дымка н/о +25.6 +24.4 93 +36 +36 очень
душно
1009.1 1003.4
14 24.08 З 6 12 км н/о +25.6 +23.3 87 +34 +34 очень
душно
1009.2 1003.5
15 24.08 З 6 13 км н/о +25.5 +22.4 83 +33 +33 очень
душно
1008.8 1003.1
16 24.08 З 5 11 км н/о +25.0 +22.3 85 +33 +33 очень
душно
1008.3 1002.6
18 24.08 З 5 9000 м дымка н/о +24.8 +22.9 89 +33 +33 очень
душно
1008.5 1002.8
19 24.08 З 6 9000 м дымка н/о +24.1 +22.0 88 +31 +31 очень
душно
1008.8 1003.0
20 24.08 З 7 9000 м дымка н/о +24.1 +21.6 86 +31 +31 очень
душно
1009.2 1003.4
21 24.08 З 5 7000 м дымка н/о +24.1 +22.2 89 +31 +31 очень
душно
1009.7 1003.9
22 24.08 З 5 8000 м дымка н/о +24.8 +21.9 84 +32 +32 очень
душно
1009.6 1003.8
23 24.08 З 7 11 км н/о +26.1 +22.2 79 +34 +34 очень
душно
1009.6 1003.9
00 25.08 З 7 15 км н/о +27.3 +21.6 71 +35 +35 очень
душно
1009.7 1004.0 +24.0
01 25.08 З 7 15 км н/о +28.0 +22.3 71 +37 +37 очень
душно
1009.9 1004.2
02 25.08 З 8 11 км н/о +27.8 +22.5 73 +37 +37 очень
душно
1009.6 1003.9
03 25.08 З 7 11 км н/о +28.1 +22.4 71 +37 +37 очень
душно
1009.1 1003.4
04 25.08 ЮЗ 7 12 км н/о +28.7 +22.7 70 +38 +38 очень
душно
1008.9 1003.2
05 25.08 ЮЗ 8 14 км н/о +28.9 +22.9 70 +38 +38 очень
душно
1008.6 1002.9
06 25.08 ЮЗ 8 13 км н/о +28.7 +22.5 69 +38 +38 очень
душно
1008.2 1002.5
07 25.08 З 8 12 км н/о +28.2 +22.4 71 +37 +37 очень
душно
1008.7 1003.0
08 25.08 З 7 13 км н/о +27.8 +22.5 73 +37 +37 очень
душно
1008.9 1003.2
09 25.08 З 7 13 км н/о +26.6 +22.7 79 +35 +35 очень
душно
1009.1 1003.4
10 25.08 З 7 13 км н/о +26.0 +22.5 81 +34 +34 очень
душно
1009.5 1003.8
11 25.08 З 4 9000 м дымка н/о +25.6 +22.9 85 +34 +34 очень
душно
1010.3 1004.6
12 25.08 З 4 8000 м дымка н/о +25.2 +22.7 86 +33 +33 очень
душно
1010.6 1004.8 +29.4

 

Местоположение метеостанции Омаэдзаки (Япония): широта 34.60 долгота 138.21 высота над уровнем моря 47 м.

В архиве по умолчанию представлена погода в Омаэдзаки за последнюю неделю. Архивные данные за месяц целиком и за предыдущие месяцы, начиная с января 2011 года, Вы можете получить, выбрав интересующий диапазон дат из раскрывающегося списка и нажав кнопку "Ввод!".


*Определитесь, кто Вы:
робот инопланетянин человек

Внимание! Время в таблицах - всемирное. Для получения местного времени необходимо прибавить поправку, которая равна 9 ч.

Смотрите также архив погоды в соседних городах и на ближайших метеорологических станциях:

Погода в Сидзуоке (Япония) (46 км)
Погода в Хамамацу (Япония) (48 км)
Погода в Иродзаки (Япония) (59 км)
Погода в Мисиме (Япония) (88 км)
Погода в Аджиро (Япония) (95 км)
Погода на Фудзияме (Япония) (98 км)
Погода в Ирако (Япония) (102 км)
Погода на Осиме (Япония) (108 км)
Погода в Ииде (Япония) (109 км)
Погода на Озере Кавагучи (Япония) (112 км)

Пояснения к столбцам:

Ветер - указаны скорость ветра в м/с - средняя за 10 мин, порывы в срок и между сроками (в фигурных скобках) и направление, откуда дует ветер: С - северный, СВ - северо-восточный, В - восточный, ЮВ - юго-восточный, Ю - южный, ЮЗ - юго-западный, З - западный, СЗ - северо-западный.
Видимость - горизонтальная дальность видимости в метрах или километрах. При видимости от 1 до 10 км при отсутствии осадков обычно наблюдается дымка, при ухудшении видимости до 1 км и менее - туман. В сухую погоду видимость может ухудшаться дымом, пылью или мглою.
Явления - указаны атмосферные явления, наблюдавшиеся в срок или в последний час перед сроком; фигурными скобками обозначены явления, наблюдавшиеся между сроками (за 1-3 часа до срока); квадратными скобками обозначены град или гололедные отложения с указанием их диаметра в мм.
Облачность - указаны через наклонную черту общая и нижняя облачность в баллах и высота нижней границы облаков в метрах; квадратными скобками обозначены формы облаков: Ci - перистые, Cs - перисто-слоистые, Cc - перисто-кучевые, Ac - высококучевые, As - высокослоистые, Sc - слоисто-кучевые, Ns - слоисто-дождевые, Cu - кучевые, Cb - кучево-дождевые. Подробнее классификацию облаков см. в Атласе облаков (PDF).
T - Температура воздуха - температура, измеренная на высоте 2 м над землей.
Td - Температура точки росы - температура, при понижении до которой содержащийся в воздухе водяной пар достигнет насыщения.
f - Относительная влажность воздуха - влажноcть воздуха, измеренная на высоте 2 м над землей.
Te - Эффективная температура - температура, которую ощущает одетый по сезону человек в тени. Характеристика душности погоды. При расчете учитывается влияние влажности воздуха и скорости ветра на теплоощущения человека.
Tes - Эффективная температура на солнце - температура, которую ощущает человек, с поправкой на солнечный нагрев. Характеристика знойности погоды. Зависит от высоты солнца над горизонтом, облачности и скорости ветра. Ночью, в пасмурную погоду, а также при ветре 12 м/с и более поправка равна нулю.
P - Атмосферное давление - приведенное к уровню моря атмосферное давление.
Po - Атмосферное давление - измеренное на уровне метеостанции атмосферное давление.
Tmin - Минимальная температура - минимум температуры воздуха на высоте 2 м над землей.
Tmax - Максимальная температура - максимум температуры воздуха на высоте 2 м над землей.
R - Количество осадков - Количество выпавших осадков за период времени, мм. При наведении курсора мыши на число - период времени, за который выпало указанное количество осадков.
R24 - Количество осадков - Количество выпавших осадков за 24 часа, мм.
S - Снежный покров - Высота снежного покрова, см. При наведении курсора мыши на число - состояние снежного покрова и степень покрытия местности в баллах.